date,time,SUV Intensity [MED/Hr],UV Index,Daily total [MED],Since Last [MED]
17/05/2023,00:01:52,-0.001,0.0,0.0,0.0
17/05/2023,00:02:51,0.000,0.0,0.0,0.0
17/05/2023,00:03:51,0.001,0.0,0.0,0.0
17/05/2023,00:04:52,0.001,0.0,0.0,0.0
17/05/2023,00:05:52,0.001,0.0,0.0,0.0
17/05/2023,00:06:51,-0.000,0.0,0.0,0.0
17/05/2023,00:07:51,0.000,0.0,0.0,0.0
17/05/2023,00:08:51,0.000,0.0,0.0,0.0
17/05/2023,00:09:52,0.000,0.0,0.0,0.0
17/05/2023,00:10:52,0.001,0.0,0.0,0.0
17/05/2023,00:11:51,0.000,0.0,0.0,0.0
17/05/2023,00:12:52,0.000,0.0,0.0,0.0
17/05/2023,00:13:51,0.000,0.0,0.0,0.0
17/05/2023,00:14:51,0.000,0.0,0.0,0.0
17/05/2023,00:15:52,0.001,0.0,0.0,0.0
17/05/2023,00:16:52,-0.001,0.0,0.0,0.0
17/05/2023,00:17:52,0.000,0.0,0.0,0.0
17/05/2023,00:18:51,0.000,0.0,0.0,0.0
17/05/2023,00:19:51,-0.001,0.0,0.0,0.0
17/05/2023,00:20:51,0.000,0.0,0.0,0.0
17/05/2023,00:21:52,0.000,0.0,0.0,0.0
17/05/2023,00:22:52,-0.001,0.0,0.0,0.0
17/05/2023,00:23:52,-0.001,0.0,0.0,0.0
17/05/2023,00:24:52,0.000,0.0,0.0,0.0
17/05/2023,00:25:51,0.001,0.0,0.0,0.0
17/05/2023,00:26:51,0.000,0.0,0.0,0.0
17/05/2023,00:27:51,0.000,0.0,0.0,0.0
17/05/2023,00:28:51,-0.000,0.0,0.0,0.0
17/05/2023,00:29:51,0.000,0.0,0.0,0.0
17/05/2023,00:30:51,0.001,0.0,0.0,0.0
17/05/2023,00:31:52,-0.001,0.0,0.0,0.0
17/05/2023,00:32:52,0.000,0.0,0.0,0.0
17/05/2023,00:33:52,0.000,0.0,0.0,0.0
17/05/2023,00:34:51,-0.001,0.0,0.0,0.0
17/05/2023,00:35:51,0.000,0.0,0.0,0.0
17/05/2023,00:36:52,-0.000,0.0,0.0,0.0
17/05/2023,00:37:51,0.000,0.0,0.0,0.0
17/05/2023,00:38:51,0.000,0.0,0.0,0.0
17/05/2023,00:39:51,0.001,0.0,0.0,0.0
17/05/2023,00:40:52,-0.001,0.0,0.0,0.0
17/05/2023,00:41:52,0.000,0.0,0.0,0.0
17/05/2023,00:42:51,0.000,0.0,0.0,0.0
17/05/2023,00:43:51,-0.001,0.0,0.0,0.0
17/05/2023,00:44:51,0.001,0.0,0.0,0.0
17/05/2023,00:45:51,0.000,0.0,0.0,0.0
17/05/2023,00:46:51,-0.000,0.0,0.0,0.0
17/05/2023,00:47:52,0.000,0.0,0.0,0.0
17/05/2023,00:48:52,0.001,0.0,0.0,0.0
17/05/2023,00:49:52,0.000,0.0,0.0,0.0
17/05/2023,00:50:51,0.001,0.0,0.0,0.0
17/05/2023,00:51:51,0.000,0.0,0.0,0.0
17/05/2023,00:52:52,0.000,0.0,0.0,0.0
17/05/2023,00:53:52,0.000,0.0,0.0,0.0
17/05/2023,00:54:52,0.000,0.0,0.0,0.0
17/05/2023,00:55:52,0.000,0.0,0.0,0.0
17/05/2023,00:56:52,0.000,0.0,0.0,0.0
17/05/2023,00:57:52,0.000,0.0,0.0,0.0
17/05/2023,00:58:51,0.000,0.0,0.0,0.0
17/05/2023,00:59:52,0.000,0.0,0.0,0.0
17/05/2023,01:00:52,-0.001,0.0,0.0,0.0
17/05/2023,01:01:52,0.002,0.0,0.0,0.0
17/05/2023,01:02:51,0.001,0.0,0.0,0.0
17/05/2023,01:03:51,0.001,0.0,0.0,0.0
17/05/2023,01:04:51,0.000,0.0,0.0,0.0
17/05/2023,01:05:52,0.000,0.0,0.0,0.0
17/05/2023,01:06:52,0.000,0.0,0.0,0.0
17/05/2023,01:07:51,0.000,0.0,0.0,0.0
17/05/2023,01:08:51,0.000,0.0,0.0,0.0
17/05/2023,01:09:51,0.000,0.0,0.0,0.0
17/05/2023,01:10:52,0.000,0.0,0.0,0.0
17/05/2023,01:11:51,0.000,0.0,0.0,0.0
17/05/2023,01:12:52,0.001,0.0,0.0,0.0
17/05/2023,01:13:51,0.000,0.0,0.0,0.0
17/05/2023,01:14:52,-0.000,0.0,0.0,0.0
17/05/2023,01:15:52,0.001,0.0,0.0,0.0
17/05/2023,01:16:51,0.000,0.0,0.0,0.0
17/05/2023,01:17:52,0.001,0.0,0.0,0.0
17/05/2023,01:18:52,0.000,0.0,0.0,0.0
17/05/2023,01:19:52,0.000,0.0,0.0,0.0
17/05/2023,01:20:51,0.000,0.0,0.0,0.0
17/05/2023,01:21:52,-0.001,0.0,0.0,0.0
17/05/2023,01:22:52,-0.001,0.0,0.0,0.0
17/05/2023,01:23:51,0.000,0.0,0.0,0.0
17/05/2023,01:24:52,0.000,0.0,0.0,0.0
17/05/2023,01:25:52,0.000,0.0,0.0,0.0
17/05/2023,01:26:52,0.001,0.0,0.0,0.0
17/05/2023,01:27:52,-0.000,0.0,0.0,0.0
17/05/2023,01:28:52,0.000,0.0,0.0,0.0
17/05/2023,01:29:51,0.001,0.0,0.0,0.0
17/05/2023,01:30:52,0.001,0.0,0.0,0.0
17/05/2023,01:31:52,-0.001,0.0,0.0,0.0
17/05/2023,01:32:52,0.000,0.0,0.0,0.0
17/05/2023,01:33:52,-0.001,0.0,0.0,0.0
17/05/2023,01:34:51,0.000,0.0,0.0,0.0
17/05/2023,01:35:52,0.000,0.0,0.0,0.0
17/05/2023,01:36:52,0.001,0.0,0.0,0.0
17/05/2023,01:37:52,-0.001,0.0,0.0,0.0
17/05/2023,01:38:51,0.000,0.0,0.0,0.0
17/05/2023,01:39:52,0.000,0.0,0.0,0.0
17/05/2023,01:40:51,0.002,0.0,0.0,0.0
17/05/2023,01:41:51,-0.001,0.0,0.0,0.0
17/05/2023,01:42:52,0.000,0.0,0.0,0.0
17/05/2023,01:43:52,0.000,0.0,0.0,0.0
17/05/2023,01:44:52,0.000,0.0,0.0,0.0
17/05/2023,01:45:52,0.001,0.0,0.0,0.0
17/05/2023,01:46:52,-0.000,0.0,0.0,0.0
17/05/2023,01:47:52,0.000,0.0,0.0,0.0
17/05/2023,01:48:51,0.000,0.0,0.0,0.0
17/05/2023,01:49:51,0.000,0.0,0.0,0.0
17/05/2023,01:50:51,0.000,0.0,0.0,0.0
17/05/2023,01:51:51,-0.001,0.0,0.0,0.0
17/05/2023,01:52:52,0.000,0.0,0.0,0.0
17/05/2023,01:53:51,0.000,0.0,0.0,0.0
17/05/2023,01:54:51,0.000,0.0,0.0,0.0
17/05/2023,01:55:51,0.000,0.0,0.0,0.0
17/05/2023,01:56:52,0.000,0.0,0.0,0.0
17/05/2023,01:57:52,0.001,0.0,0.0,0.0
17/05/2023,01:58:52,0.000,0.0,0.0,0.0
17/05/2023,01:59:51,0.001,0.0,0.0,0.0
17/05/2023,02:00:53,0.000,0.0,0.0,0.0
17/05/2023,02:01:52,0.000,0.0,0.0,0.0
17/05/2023,02:02:52,0.000,0.0,0.0,0.0
17/05/2023,02:03:52,-0.001,0.0,0.0,0.0
17/05/2023,02:04:51,0.001,0.0,0.0,0.0
17/05/2023,02:05:52,-0.001,0.0,0.0,0.0
17/05/2023,02:06:52,0.001,0.0,0.0,0.0
17/05/2023,02:07:52,0.000,0.0,0.0,0.0
17/05/2023,02:08:52,0.000,0.0,0.0,0.0
17/05/2023,02:09:52,-0.001,0.0,0.0,0.0
17/05/2023,02:10:52,0.001,0.0,0.0,0.0
17/05/2023,02:11:52,0.000,0.0,0.0,0.0
17/05/2023,02:12:52,0.000,0.0,0.0,0.0
17/05/2023,02:13:52,0.000,0.0,0.0,0.0
17/05/2023,02:14:51,0.000,0.0,0.0,0.0
17/05/2023,02:15:51,-0.000,0.0,0.0,0.0
17/05/2023,02:16:51,0.001,0.0,0.0,0.0
17/05/2023,02:17:52,0.000,0.0,0.0,0.0
17/05/2023,02:18:52,0.000,0.0,0.0,0.0
17/05/2023,02:19:52,0.000,0.0,0.0,0.0
17/05/2023,02:20:52,0.000,0.0,0.0,0.0
17/05/2023,02:21:51,0.000,0.0,0.0,0.0
17/05/2023,02:22:51,0.000,0.0,0.0,0.0
17/05/2023,02:23:52,0.000,0.0,0.0,0.0
17/05/2023,02:24:52,0.000,0.0,0.0,0.0
17/05/2023,02:25:52,0.000,0.0,0.0,0.0
17/05/2023,02:26:52,0.000,0.0,0.0,0.0
17/05/2023,02:27:51,0.000,0.0,0.0,0.0
17/05/2023,02:28:51,0.000,0.0,0.0,0.0
17/05/2023,02:29:51,0.000,0.0,0.0,0.0
17/05/2023,02:30:51,0.000,0.0,0.0,0.0
17/05/2023,02:31:52,-0.000,0.0,0.0,0.0
17/05/2023,02:32:52,0.000,0.0,0.0,0.0
17/05/2023,02:33:51,0.000,0.0,0.0,0.0
17/05/2023,02:34:53,0.002,0.0,0.0,0.0
17/05/2023,02:35:53,0.000,0.0,0.0,0.0
17/05/2023,02:36:52,0.000,0.0,0.0,0.0
17/05/2023,02:37:52,-0.000,0.0,0.0,0.0
17/05/2023,02:38:51,0.000,0.0,0.0,0.0
17/05/2023,02:39:51,-0.000,0.0,0.0,0.0
17/05/2023,02:40:52,0.000,0.0,0.0,0.0
17/05/2023,02:41:52,0.000,0.0,0.0,0.0
17/05/2023,02:42:52,0.000,0.0,0.0,0.0
17/05/2023,02:43:51,-0.000,0.0,0.0,0.0
17/05/2023,02:44:52,0.000,0.0,0.0,0.0
17/05/2023,02:45:51,0.000,0.0,0.0,0.0
17/05/2023,02:46:52,0.001,0.0,0.0,0.0
17/05/2023,02:47:52,0.000,0.0,0.0,0.0
17/05/2023,02:48:51,0.000,0.0,0.0,0.0
17/05/2023,02:49:52,0.001,0.0,0.0,0.0
17/05/2023,02:50:52,0.000,0.0,0.0,0.0
17/05/2023,02:51:52,0.000,0.0,0.0,0.0
17/05/2023,02:52:53,0.000,0.0,0.0,0.0
17/05/2023,02:53:52,0.001,0.0,0.0,0.0
17/05/2023,02:54:51,0.000,0.0,0.0,0.0
17/05/2023,02:56:21,0.000,0.0,0.0,0.0
17/05/2023,02:57:52,0.000,0.0,0.0,0.0
17/05/2023,02:58:52,0.001,0.0,0.0,0.0
17/05/2023,02:59:52,0.001,0.0,0.0,0.0
17/05/2023,03:00:52,0.001,0.0,0.0,0.0
17/05/2023,03:01:51,0.001,0.0,0.0,0.0
17/05/2023,03:02:52,0.001,0.0,0.0,0.0
17/05/2023,03:03:52,0.001,0.0,0.0,0.0
17/05/2023,03:04:52,0.001,0.0,0.0,0.0
17/05/2023,03:05:52,0.001,0.0,0.0,0.0
17/05/2023,03:06:52,-0.000,0.0,0.0,0.0
17/05/2023,03:07:52,0.001,0.0,0.0,0.0
17/05/2023,03:08:52,-0.000,0.0,0.0,0.0
17/05/2023,03:09:51,0.001,0.0,0.0,0.0
17/05/2023,03:10:52,0.001,0.0,0.0,0.0
17/05/2023,03:11:52,0.001,0.0,0.0,0.0
17/05/2023,03:12:52,0.001,0.0,0.0,0.0
17/05/2023,03:13:52,0.001,0.0,0.0,0.0
17/05/2023,03:14:52,0.001,0.0,0.0,0.0
17/05/2023,03:15:52,0.001,0.0,0.0,0.0
17/05/2023,03:16:51,0.001,0.0,0.0,0.0
17/05/2023,03:17:52,0.001,0.0,0.0,0.0
17/05/2023,03:18:51,0.001,0.0,0.0,0.0
17/05/2023,03:19:52,0.001,0.0,0.0,0.0
17/05/2023,03:20:52,0.001,0.0,0.0,0.0
17/05/2023,03:21:52,0.001,0.0,0.0,0.0
17/05/2023,03:22:52,0.001,0.0,0.0,0.0
17/05/2023,03:23:52,0.001,0.0,0.0,0.0
17/05/2023,03:24:52,0.001,0.0,0.0,0.0
17/05/2023,03:25:52,0.001,0.0,0.0,0.0
17/05/2023,03:26:52,0.000,0.0,0.0,0.0
17/05/2023,03:27:52,0.001,0.0,0.0,0.0
17/05/2023,03:28:52,0.000,0.0,0.0,0.0
17/05/2023,03:29:52,0.001,0.0,0.0,0.0
17/05/2023,03:30:52,0.001,0.0,0.0,0.0
17/05/2023,03:31:52,0.000,0.0,0.0,0.0
17/05/2023,03:32:51,0.001,0.0,0.0,0.0
17/05/2023,03:33:52,0.000,0.0,0.0,0.0
17/05/2023,03:34:52,0.001,0.0,0.0,0.0
17/05/2023,03:35:52,0.001,0.0,0.0,0.0
17/05/2023,03:36:52,0.001,0.0,0.0,0.0
17/05/2023,03:37:52,0.001,0.0,0.0,0.0
17/05/2023,03:38:52,0.001,0.0,0.0,0.0
17/05/2023,03:39:52,0.001,0.0,0.0,0.0
17/05/2023,03:40:52,0.001,0.0,0.0,0.0
17/05/2023,03:41:52,0.001,0.0,0.0,0.0
17/05/2023,03:42:52,0.001,0.0,0.0,0.0
17/05/2023,03:43:52,0.001,0.0,0.0,0.0
17/05/2023,03:44:52,0.001,0.0,0.0,0.0
17/05/2023,03:45:52,0.001,0.0,0.0,0.0
17/05/2023,03:46:51,0.001,0.0,0.0,0.0
17/05/2023,03:47:52,0.000,0.0,0.0,0.0
17/05/2023,03:48:52,0.001,0.0,0.0,0.0
17/05/2023,03:49:52,0.001,0.0,0.0,0.0
17/05/2023,03:50:52,0.001,0.0,0.0,0.0
17/05/2023,03:51:52,0.001,0.0,0.0,0.0
17/05/2023,03:52:52,0.001,0.0,0.0,0.0
17/05/2023,03:53:52,0.001,0.0,0.0,0.0
17/05/2023,03:54:52,0.001,0.0,0.0,0.0
17/05/2023,03:55:52,0.001,0.0,0.0,0.0
17/05/2023,03:56:51,0.002,0.0,0.0,0.0
17/05/2023,03:57:51,0.001,0.0,0.0,0.0
17/05/2023,03:58:52,0.001,0.0,0.0,0.0
17/05/2023,03:59:52,0.001,0.0,0.0,0.0
17/05/2023,04:00:52,0.002,0.0,0.0,0.0
17/05/2023,04:01:52,0.002,0.0,0.0,0.0
17/05/2023,04:02:52,0.003,0.0,0.0,0.0
17/05/2023,04:03:51,0.003,0.0,0.0,0.0
17/05/2023,04:04:51,0.001,0.0,0.0,0.0
17/05/2023,04:05:52,0.002,0.0,0.0,0.0
17/05/2023,04:06:52,0.001,0.0,0.0,0.0
17/05/2023,04:07:52,0.003,0.0,0.0,0.0
17/05/2023,04:08:52,0.002,0.0,0.0,0.0
17/05/2023,04:09:51,0.003,0.0,0.0,0.0
17/05/2023,04:10:52,0.002,0.0,0.0,0.0
17/05/2023,04:11:51,0.003,0.0,0.0,0.0
17/05/2023,04:12:52,0.003,0.0,0.0,0.0
17/05/2023,04:13:52,0.004,0.0,0.0,0.0
17/05/2023,04:14:52,0.004,0.0,0.0,0.0
17/05/2023,04:15:52,0.003,0.0,0.0,0.0
17/05/2023,04:16:52,0.004,0.0,0.0,0.0
17/05/2023,04:17:52,0.005,0.0,0.0,0.0
17/05/2023,04:18:52,0.003,0.0,0.0,0.0
17/05/2023,04:19:52,0.004,0.0,0.0,0.0
17/05/2023,04:20:51,0.003,0.0,0.0,0.0
17/05/2023,04:21:52,0.005,0.0,0.0,0.0
17/05/2023,04:22:52,0.005,0.0,0.0,0.0
17/05/2023,04:23:51,0.005,0.0,0.0,0.0
17/05/2023,04:24:52,0.006,0.0,0.0,0.0
17/05/2023,04:25:52,0.006,0.0,0.0,0.0
17/05/2023,04:26:52,0.006,0.0,0.0,0.0
17/05/2023,04:27:52,0.006,0.0,0.0,0.0
17/05/2023,04:28:52,0.006,0.0,0.0,0.0
17/05/2023,04:29:51,0.007,0.0,0.0,0.0
17/05/2023,04:30:52,0.008,0.0,0.0,0.0
17/05/2023,04:31:52,0.008,0.0,0.001,0.001
17/05/2023,04:32:52,0.008,0.0,0.001,0.0
17/05/2023,04:33:52,0.008,0.0,0.001,0.0
17/05/2023,04:34:52,0.007,0.0,0.001,0.0
17/05/2023,04:35:52,0.009,0.0,0.001,0.0
17/05/2023,04:36:52,0.009,0.0,0.001,0.0
17/05/2023,04:37:52,0.010,0.0,0.001,0.0
17/05/2023,04:38:52,0.010,0.0,0.002,0.001
17/05/2023,04:39:52,0.011,0.0,0.002,0.0
17/05/2023,04:40:52,0.011,0.0,0.002,0.0
17/05/2023,04:41:52,0.010,0.0,0.002,0.0
17/05/2023,04:42:52,0.011,0.0,0.002,0.0
17/05/2023,04:43:52,0.013,0.0,0.002,0.0
17/05/2023,04:44:52,0.012,0.0,0.003,0.001
17/05/2023,04:45:52,0.013,0.0,0.003,0.0
17/05/2023,04:46:52,0.013,0.0,0.003,0.0
17/05/2023,04:47:52,0.013,0.0,0.003,0.0
17/05/2023,04:48:52,0.014,0.0,0.003,0.0
17/05/2023,04:49:52,0.015,0.0,0.004,0.001
17/05/2023,04:50:52,0.016,0.0,0.004,0.0
17/05/2023,04:51:52,0.016,0.0,0.004,0.0
17/05/2023,04:52:52,0.016,0.0,0.004,0.0
17/05/2023,04:53:52,0.016,0.0,0.005,0.001
17/05/2023,04:54:51,0.017,0.0,0.005,0.0
17/05/2023,04:55:52,0.018,0.0,0.005,0.0
17/05/2023,04:56:52,0.018,0.0,0.006,0.001
17/05/2023,04:57:52,0.019,0.0,0.006,0.0
17/05/2023,04:58:52,0.019,0.0,0.006,0.0
17/05/2023,04:59:52,0.019,0.0,0.007,0.001
17/05/2023,05:00:52,0.020,0.0,0.007,0.0
17/05/2023,05:01:52,0.022,0.0,0.007,0.0
17/05/2023,05:02:52,0.022,0.0,0.008,0.001
17/05/2023,05:03:52,0.024,0.0,0.008,0.0
17/05/2023,05:04:52,0.025,0.0,0.008,0.0
17/05/2023,05:05:51,0.025,0.0,0.009,0.001
17/05/2023,05:06:52,0.025,0.0,0.009,0.0
17/05/2023,05:07:52,0.026,0.0,0.01,0.001
17/05/2023,05:08:52,0.028,0.0,0.01,0.0
17/05/2023,05:09:51,0.028,0.0,0.011,0.001
17/05/2023,05:10:52,0.029,0.0,0.011,0.0
17/05/2023,05:11:52,0.030,0.0,0.012,0.001
17/05/2023,05:12:52,0.031,0.0,0.012,0.0
17/05/2023,05:13:52,0.031,0.0,0.013,0.001
17/05/2023,05:14:52,0.033,0.0,0.013,0.0
17/05/2023,05:15:52,0.033,0.0,0.014,0.001
17/05/2023,05:16:52,0.034,0.0,0.014,0.0
17/05/2023,05:17:52,0.035,0.0,0.015,0.001
17/05/2023,05:18:52,0.037,0.0,0.015,0.0
17/05/2023,05:19:52,0.039,0.0,0.016,0.001
17/05/2023,05:20:52,0.039,0.0,0.017,0.001
17/05/2023,05:21:52,0.040,0.0,0.017,0.0
17/05/2023,05:22:52,0.041,0.0,0.018,0.001
17/05/2023,05:23:52,0.043,0.0,0.019,0.001
17/05/2023,05:24:52,0.043,0.0,0.019,0.0
17/05/2023,05:25:52,0.044,0.0,0.02,0.001
17/05/2023,05:26:52,0.046,0.0,0.021,0.001
17/05/2023,05:27:52,0.047,0.0,0.022,0.001
17/05/2023,05:28:52,0.048,0.0,0.022,0.0
17/05/2023,05:29:52,0.049,0.0,0.023,0.001
17/05/2023,05:30:52,0.050,0.0,0.024,0.001
17/05/2023,05:31:52,0.052,0.0,0.025,0.001
17/05/2023,05:32:52,0.053,0.0,0.026,0.001
17/05/2023,05:33:52,0.054,0.0,0.027,0.001
17/05/2023,05:34:52,0.056,0.0,0.028,0.001
17/05/2023,05:35:52,0.057,0.0,0.029,0.001
17/05/2023,05:36:53,0.059,0.0,0.03,0.001
17/05/2023,05:37:52,0.060,0.0,0.031,0.001
17/05/2023,05:38:52,0.061,0.0,0.032,0.001
17/05/2023,05:39:52,0.063,0.0,0.033,0.001
17/05/2023,05:40:52,0.065,0.0,0.034,0.001
17/05/2023,05:41:52,0.066,0.0,0.035,0.001
17/05/2023,05:42:52,0.068,0.0,0.036,0.001
17/05/2023,05:43:51,0.069,0.0,0.037,0.001
17/05/2023,05:44:52,0.071,0.0,0.038,0.001
17/05/2023,05:45:52,0.072,0.0,0.039,0.001
17/05/2023,05:46:52,0.074,0.0,0.041,0.002
17/05/2023,05:47:52,0.076,0.0,0.042,0.001
17/05/2023,05:48:52,0.078,0.0,0.043,0.001
17/05/2023,05:49:52,0.080,0.0,0.044,0.001
17/05/2023,05:50:52,0.081,0.0,0.046,0.002
17/05/2023,05:51:52,0.082,0.0,0.047,0.001
17/05/2023,05:52:52,0.085,0.0,0.049,0.002
17/05/2023,05:53:52,0.087,0.0,0.05,0.001
17/05/2023,05:54:52,0.089,0.0,0.051,0.001
17/05/2023,05:55:53,0.091,0.0,0.053,0.002
17/05/2023,05:56:52,0.093,0.0,0.054,0.001
17/05/2023,05:57:52,0.096,0.0,0.056,0.002
17/05/2023,05:58:52,0.100,0.0,0.058,0.002
17/05/2023,05:59:52,0.103,0.0,0.059,0.001
17/05/2023,06:00:52,0.106,0.0,0.061,0.002
17/05/2023,06:01:52,0.107,0.0,0.063,0.002
17/05/2023,06:02:52,0.111,0.0,0.065,0.002
17/05/2023,06:03:52,0.112,0.0,0.067,0.002
17/05/2023,06:04:52,0.114,0.0,0.068,0.001
17/05/2023,06:05:52,0.117,0.0,0.07,0.002
17/05/2023,06:06:52,0.118,0.0,0.072,0.002
17/05/2023,06:07:52,0.123,0.0,0.074,0.002
17/05/2023,06:08:52,0.124,0.0,0.076,0.002
17/05/2023,06:09:52,0.127,0.0,0.078,0.002
17/05/2023,06:10:52,0.131,0.0,0.081,0.003
17/05/2023,06:11:53,0.132,0.0,0.083,0.002
17/05/2023,06:12:52,0.135,0.0,0.085,0.002
17/05/2023,06:13:52,0.138,0.0,0.087,0.002
17/05/2023,06:14:52,0.140,0.0,0.09,0.003
17/05/2023,06:15:52,0.144,0.0,0.092,0.002
17/05/2023,06:16:52,0.147,0.0,0.094,0.002
17/05/2023,06:17:52,0.150,0.0,0.097,0.003
17/05/2023,06:18:52,0.153,0.0,0.099,0.002
17/05/2023,06:19:52,0.155,0.0,0.102,0.003
17/05/2023,06:20:52,0.158,0.0,0.105,0.003
17/05/2023,06:21:52,0.161,0.0,0.107,0.002
17/05/2023,06:22:52,0.164,0.0,0.11,0.003
17/05/2023,06:23:52,0.168,0.0,0.113,0.003
17/05/2023,06:24:52,0.171,0.0,0.116,0.003
17/05/2023,06:25:52,0.175,0.0,0.118,0.002
17/05/2023,06:26:52,0.179,0.0,0.121,0.003
17/05/2023,06:27:52,0.184,0.0,0.124,0.003
17/05/2023,06:28:52,0.187,0.0,0.127,0.003
17/05/2023,06:29:52,0.190,0.0,0.131,0.004
17/05/2023,06:30:52,0.193,0.0,0.134,0.003
17/05/2023,06:31:53,0.197,0.0,0.137,0.003
17/05/2023,06:32:52,0.200,0.0,0.14,0.003
17/05/2023,06:33:52,0.204,0.0,0.144,0.004
17/05/2023,06:34:52,0.208,0.0,0.147,0.003
17/05/2023,06:35:52,0.211,0.0,0.151,0.004
17/05/2023,06:36:52,0.214,0.0,0.154,0.003
17/05/2023,06:37:52,0.217,0.0,0.158,0.004
17/05/2023,06:38:52,0.222,1.0,0.161,0.003
17/05/2023,06:39:52,0.225,1.0,0.165,0.004
17/05/2023,06:40:52,0.230,1.0,0.169,0.004
17/05/2023,06:41:52,0.233,1.0,0.173,0.004
17/05/2023,06:42:52,0.237,1.0,0.177,0.004
17/05/2023,06:43:53,0.242,1.0,0.181,0.004
17/05/2023,06:44:52,0.247,1.0,0.185,0.004
17/05/2023,06:45:52,0.252,1.0,0.189,0.004
17/05/2023,06:46:53,0.256,1.0,0.193,0.004
17/05/2023,06:47:52,0.261,1.0,0.198,0.005
17/05/2023,06:48:52,0.266,1.0,0.202,0.004
17/05/2023,06:49:53,0.269,1.0,0.206,0.004
17/05/2023,06:50:52,0.275,1.0,0.211,0.005
17/05/2023,06:51:52,0.277,1.0,0.216,0.005
17/05/2023,06:52:53,0.278,1.0,0.22,0.004
17/05/2023,06:53:52,0.286,1.0,0.225,0.005
17/05/2023,06:54:52,0.293,1.0,0.23,0.005
17/05/2023,06:55:53,0.301,1.0,0.235,0.005
17/05/2023,06:56:52,0.307,1.0,0.24,0.005
17/05/2023,06:57:52,0.317,1.0,0.245,0.005
17/05/2023,06:58:52,0.321,1.0,0.25,0.005
17/05/2023,06:59:52,0.329,1.0,0.256,0.006
17/05/2023,07:00:52,0.334,1.0,0.261,0.005
17/05/2023,07:01:52,0.340,1.0,0.267,0.006
17/05/2023,07:02:52,0.343,1.0,0.272,0.005
17/05/2023,07:03:52,0.347,1.0,0.278,0.006
17/05/2023,07:04:53,0.351,1.0,0.284,0.006
17/05/2023,07:05:52,0.357,1.0,0.29,0.006
17/05/2023,07:06:52,0.361,1.0,0.296,0.006
17/05/2023,07:07:52,0.364,1.0,0.302,0.006
17/05/2023,07:08:53,0.369,1.0,0.308,0.006
17/05/2023,07:09:52,0.378,1.0,0.314,0.006
17/05/2023,07:10:52,0.382,1.0,0.321,0.007
17/05/2023,07:11:52,0.387,1.0,0.327,0.006
17/05/2023,07:12:53,0.390,1.0,0.334,0.007
17/05/2023,07:13:52,0.393,1.0,0.34,0.006
17/05/2023,07:14:52,0.399,1.0,0.347,0.007
17/05/2023,07:15:52,0.402,1.0,0.353,0.006
17/05/2023,07:16:52,0.397,1.0,0.36,0.007
17/05/2023,07:17:53,0.415,1.0,0.367,0.007
17/05/2023,07:18:52,0.427,1.0,0.374,0.007
17/05/2023,07:19:52,0.429,1.0,0.381,0.007
17/05/2023,07:20:52,0.426,1.0,0.388,0.007
17/05/2023,07:21:53,0.419,1.0,0.395,0.007
17/05/2023,07:22:52,0.425,1.0,0.402,0.007
17/05/2023,07:23:52,0.428,1.0,0.409,0.007
17/05/2023,07:24:52,0.437,1.0,0.416,0.007
17/05/2023,07:25:52,0.414,1.0,0.423,0.007
17/05/2023,07:26:51,0.405,1.0,0.43,0.007
17/05/2023,07:28:15,0.391,1.0,0.439,0.009
17/05/2023,07:29:53,0.388,1.0,0.45,0.011
17/05/2023,07:30:52,0.390,1.0,0.456,0.006
17/05/2023,07:31:52,0.386,1.0,0.463,0.007
17/05/2023,07:32:52,0.361,1.0,0.469,0.006
17/05/2023,07:33:52,0.364,1.0,0.475,0.006
17/05/2023,07:34:53,0.405,1.0,0.481,0.006
17/05/2023,07:35:53,0.428,1.0,0.488,0.007
17/05/2023,07:36:53,0.414,1.0,0.495,0.007
17/05/2023,07:37:52,0.408,1.0,0.502,0.007
17/05/2023,07:38:52,0.386,1.0,0.509,0.007
17/05/2023,07:39:52,0.400,1.0,0.515,0.006
17/05/2023,07:40:53,0.435,1.0,0.522,0.007
17/05/2023,07:41:52,0.407,1.0,0.529,0.007
17/05/2023,07:42:52,0.415,1.0,0.536,0.007
17/05/2023,07:43:52,0.416,1.0,0.543,0.007
17/05/2023,07:44:52,0.473,1.0,0.551,0.008
17/05/2023,07:45:52,0.432,1.0,0.558,0.007
17/05/2023,07:46:53,0.434,1.0,0.565,0.007
17/05/2023,07:47:53,0.441,1.0,0.572,0.007
17/05/2023,07:48:52,0.455,1.0,0.58,0.008
17/05/2023,07:49:53,0.487,1.0,0.588,0.008
17/05/2023,07:50:53,0.537,1.0,0.596,0.008
17/05/2023,07:51:52,0.554,1.0,0.605,0.009
17/05/2023,07:52:52,0.566,1.0,0.615,0.01
17/05/2023,07:53:53,0.554,1.0,0.624,0.009
17/05/2023,07:54:52,0.558,1.0,0.634,0.01
17/05/2023,07:55:52,0.564,1.0,0.643,0.009
17/05/2023,07:56:52,0.579,1.0,0.652,0.009
17/05/2023,07:57:52,0.567,1.0,0.662,0.01
17/05/2023,07:58:52,0.503,1.0,0.671,0.009
17/05/2023,07:59:53,0.510,1.0,0.679,0.008
17/05/2023,08:00:52,0.517,1.0,0.688,0.009
17/05/2023,08:01:53,0.582,1.0,0.697,0.009
17/05/2023,08:02:53,0.595,1.0,0.707,0.01
17/05/2023,08:03:52,0.593,1.0,0.717,0.01
17/05/2023,08:04:52,0.504,1.0,0.726,0.009
17/05/2023,08:05:53,0.568,1.0,0.735,0.009
17/05/2023,08:06:52,0.556,1.0,0.744,0.009
17/05/2023,08:07:52,0.477,1.0,0.753,0.009
17/05/2023,08:08:53,0.471,1.0,0.761,0.008
17/05/2023,08:09:52,0.474,1.0,0.769,0.008
17/05/2023,08:10:53,0.478,1.0,0.777,0.008
17/05/2023,08:11:52,0.483,1.0,0.785,0.008
17/05/2023,08:12:52,0.491,1.0,0.793,0.008
17/05/2023,08:13:52,0.558,1.0,0.801,0.008
17/05/2023,08:14:52,0.619,1.0,0.811,0.01
17/05/2023,08:15:53,0.589,1.0,0.821,0.01
17/05/2023,08:16:52,0.577,1.0,0.831,0.01
17/05/2023,08:17:52,0.586,1.0,0.841,0.01
17/05/2023,08:18:52,0.620,1.0,0.851,0.01
17/05/2023,08:19:52,0.568,1.0,0.861,0.01
17/05/2023,08:20:52,0.491,1.0,0.87,0.009
17/05/2023,08:21:52,0.482,1.0,0.878,0.008
17/05/2023,08:22:53,0.499,1.0,0.886,0.008
17/05/2023,08:23:53,0.519,1.0,0.894,0.008
17/05/2023,08:24:53,0.533,1.0,0.903,0.009
17/05/2023,08:25:53,0.548,1.0,0.912,0.009
17/05/2023,08:26:52,0.643,1.0,0.923,0.011
17/05/2023,08:27:52,0.627,1.0,0.933,0.01
17/05/2023,08:28:52,0.578,1.0,0.943,0.01
17/05/2023,08:29:52,0.573,1.0,0.952,0.009
17/05/2023,08:30:52,0.584,1.0,0.962,0.01
17/05/2023,08:31:52,0.656,2.0,0.973,0.011
17/05/2023,08:32:52,0.627,1.0,0.984,0.011
17/05/2023,08:33:52,0.757,2.0,0.995,0.011
17/05/2023,08:34:52,0.764,2.0,1.007,0.012
17/05/2023,08:35:53,0.584,1.0,1.018,0.011
17/05/2023,08:36:53,0.559,1.0,1.028,0.01
17/05/2023,08:37:52,0.555,1.0,1.037,0.009
17/05/2023,08:38:53,0.674,2.0,1.047,0.01
17/05/2023,08:39:53,0.544,1.0,1.057,0.01
17/05/2023,08:40:52,0.560,1.0,1.066,0.009
17/05/2023,08:41:52,0.582,1.0,1.076,0.01
17/05/2023,08:42:52,0.607,1.0,1.086,0.01
17/05/2023,08:43:52,0.628,1.0,1.096,0.01
17/05/2023,08:44:52,0.636,1.0,1.107,0.011
17/05/2023,08:45:53,0.623,1.0,1.117,0.01
17/05/2023,08:46:52,0.608,1.0,1.127,0.01
17/05/2023,08:47:53,0.577,1.0,1.137,0.01
17/05/2023,08:48:53,0.569,1.0,1.147,0.01
17/05/2023,08:49:52,0.587,1.0,1.156,0.009
17/05/2023,08:50:52,0.617,1.0,1.167,0.011
17/05/2023,08:51:51,0.647,1.0,1.177,0.01
17/05/2023,08:52:52,0.672,2.0,1.188,0.011
17/05/2023,08:53:52,0.696,2.0,1.199,0.011
17/05/2023,08:54:52,0.762,2.0,1.211,0.012
17/05/2023,08:55:53,0.719,2.0,1.224,0.013
17/05/2023,08:56:52,0.755,2.0,1.236,0.012
17/05/2023,08:57:53,0.683,2.0,1.248,0.012
17/05/2023,08:58:53,0.644,1.0,1.259,0.011
17/05/2023,08:59:52,0.679,2.0,1.27,0.011
17/05/2023,09:00:52,0.684,2.0,1.281,0.011
17/05/2023,09:01:53,0.634,1.0,1.292,0.011
17/05/2023,09:02:52,0.634,1.0,1.303,0.011
17/05/2023,09:03:52,0.643,1.0,1.313,0.01
17/05/2023,09:04:52,0.653,2.0,1.324,0.011
17/05/2023,09:05:52,0.660,2.0,1.335,0.011
17/05/2023,09:06:54,0.664,2.0,1.346,0.011
17/05/2023,09:07:53,0.671,2.0,1.357,0.011
17/05/2023,09:08:53,0.681,2.0,1.368,0.011
17/05/2023,09:09:52,0.707,2.0,1.38,0.012
17/05/2023,09:10:52,0.706,2.0,1.392,0.012
17/05/2023,09:11:53,0.723,2.0,1.404,0.012
17/05/2023,09:12:52,0.746,2.0,1.416,0.012
17/05/2023,09:13:52,0.880,2.0,1.431,0.015
17/05/2023,09:14:53,0.728,2.0,1.443,0.012
17/05/2023,09:15:53,0.715,2.0,1.455,0.012
17/05/2023,09:16:53,0.699,2.0,1.467,0.012
17/05/2023,09:17:52,0.754,2.0,1.479,0.012
17/05/2023,09:18:53,0.730,2.0,1.491,0.012
17/05/2023,09:19:52,0.693,2.0,1.502,0.011
17/05/2023,09:20:52,0.702,2.0,1.514,0.012
17/05/2023,09:21:52,0.702,2.0,1.526,0.012
17/05/2023,09:22:52,0.690,2.0,1.537,0.011
17/05/2023,09:23:53,0.678,2.0,1.549,0.012
17/05/2023,09:24:53,0.676,2.0,1.56,0.011
17/05/2023,09:25:52,0.690,2.0,1.571,0.011
17/05/2023,09:26:52,0.715,2.0,1.583,0.012
17/05/2023,09:27:52,0.742,2.0,1.595,0.012
17/05/2023,09:28:52,0.764,2.0,1.608,0.013
17/05/2023,09:29:52,0.791,2.0,1.621,0.013
17/05/2023,09:30:52,0.792,2.0,1.634,0.013
17/05/2023,09:31:52,0.813,2.0,1.647,0.013
17/05/2023,09:32:53,0.818,2.0,1.661,0.014
17/05/2023,09:33:53,0.837,2.0,1.674,0.013
17/05/2023,09:34:52,0.826,2.0,1.688,0.014
17/05/2023,09:35:52,0.828,2.0,1.702,0.014
17/05/2023,09:36:52,0.820,2.0,1.716,0.014
17/05/2023,09:37:52,0.823,2.0,1.729,0.013
17/05/2023,09:38:54,0.829,2.0,1.744,0.015
17/05/2023,09:39:53,0.842,2.0,1.757,0.013
17/05/2023,09:40:53,0.860,2.0,1.771,0.014
17/05/2023,09:41:52,0.890,2.0,1.786,0.015
17/05/2023,09:42:53,0.907,2.0,1.801,0.015
17/05/2023,09:43:53,0.925,2.0,1.816,0.015
17/05/2023,09:44:52,0.937,2.0,1.832,0.016
17/05/2023,09:45:52,1.151,3.0,1.848,0.016
17/05/2023,09:46:52,1.016,2.0,1.866,0.018
17/05/2023,09:47:52,1.082,2.0,1.884,0.018
17/05/2023,09:48:53,1.060,2.0,1.901,0.017
17/05/2023,09:49:53,1.061,2.0,1.919,0.018
17/05/2023,09:50:53,1.113,3.0,1.937,0.018
17/05/2023,09:51:52,1.016,2.0,1.954,0.017
17/05/2023,09:52:52,0.914,2.0,1.97,0.016
17/05/2023,09:53:53,0.874,2.0,1.985,0.015
17/05/2023,09:54:53,0.772,2.0,1.999,0.014
17/05/2023,09:55:53,0.815,2.0,2.012,0.013
17/05/2023,09:56:53,0.854,2.0,2.026,0.014
17/05/2023,09:57:52,0.879,2.0,2.04,0.014
17/05/2023,09:58:53,0.884,2.0,2.055,0.015
17/05/2023,09:59:54,0.954,2.0,2.071,0.016